82.3060;-164.9500;1; 314.389; 212.564;1957.05.09 12:00:00; -21.8;1038.9;   3.0; 315.0;    .000;    .000;   0.000; 90;
82.3002;-164.9354;2; 314.444; 212.527;1957.05.09 18:00:00; -20.5;1039.5;   6.0; 270.0;    .675;    .250;   0.113;161;
82.2945;-164.9209;2; 314.499; 212.490;1957.05.10 00:00:00; -19.4;1038.0;   5.0; 292.0;   1.350;    .500;   0.112;161;
82.2887;-164.9063;2; 314.553; 212.454;1957.05.10 06:00:00; -19.3;1035.9;   7.0; 248.0;   2.026;    .750;   0.113;161;
82.2830;-164.8918;2; 314.608; 212.417;1957.05.10 12:00:00; -20.2;1034.6;   7.0; 248.0;   2.701;   1.000;   0.113;161;
82.2773;-164.8773;2; 314.663; 212.381;1957.05.10 18:00:00; -20.2;1032.9;   5.0; 248.0;   3.375;   1.250;   0.112;161;
82.2715;-164.8629;2; 314.717; 212.344;1957.05.11 00:00:00; -16.9;1032.1;   6.0; 225.0;   4.051;   1.500;   0.113;161;
82.2657;-164.8484;2; 314.772; 212.307;1957.05.11 06:00:00; -16.3;1031.2;   5.0; 202.0;   4.726;   1.750;   0.113;161;
82.2600;-164.8340;2; 314.826; 212.271;1957.05.11 12:00:00; -18.9;1031.3;   4.0; 180.0;   5.400;   2.000;   0.112;161;
82.2601;-164.7804;2; 314.804; 212.196;1957.05.11 18:00:00; -15.4;1031.2;   5.0; 180.0;   6.203;   2.250;   0.134; 89;
82.2603;-164.7268;2; 314.782; 212.121;1957.05.12 00:00:00; -11.0;1030.9;   5.0; 158.0;   7.006;   2.500;   0.134; 89;
82.2604;-164.6731;2; 314.760; 212.046;1957.05.12 06:00:00; -11.8;1030.6;   5.0; 158.0;   7.809;   2.750;   0.134; 89;
82.2606;-164.6195;2; 314.738; 211.971;1957.05.12 12:00:00; -13.6;1030.6;   6.0; 135.0;   8.612;   3.000;   0.134; 89;
82.2607;-164.5659;2; 314.716; 211.895;1957.05.12 18:00:00; -12.4;1029.5;   5.0; 135.0;   9.415;   3.250;   0.134; 89;
82.2608;-164.5123;2; 314.694; 211.820;1957.05.13 00:00:00; -10.8;1030.3;   4.0; 180.0;  10.219;   3.500;   0.134; 89;
82.2609;-164.4586;2; 314.672; 211.745;1957.05.13 06:00:00;  -9.8;1032.4;   3.0; 202.0;  11.022;   3.750;   0.134; 89;
82.2610;-164.4050;2; 314.650; 211.670;1957.05.13 12:00:00; -10.6;1034.9;   1.0; 180.0;  11.825;   4.000;   0.134; 89;
82.2748;-164.3782;2; 314.496; 211.673;1957.05.13 18:00:00; -10.2;1036.4;   4.0; 112.0;  13.406;   4.250;   0.264; 15;
82.2885;-164.3513;2; 314.342; 211.675;1957.05.14 00:00:00;  -9.2;1037.1;   5.0; 158.0;  14.988;   4.500;   0.264; 15;
82.3023;-164.3244;2; 314.188; 211.678;1957.05.14 06:00:00;  -9.6;1036.2;   8.0; 135.0;  16.568;   4.750;   0.263; 15;
82.3160;-164.2973;2; 314.034; 211.680;1957.05.14 12:00:00; -10.1;1035.5;   9.0; 158.0;  18.149;   5.000;   0.263; 15;
82.3298;-164.2701;2; 313.880; 211.683;1957.05.14 18:00:00;  -9.9;1034.0;   7.0; 158.0;  19.730;   5.250;   0.264; 15;
82.3435;-164.2428;2; 313.726; 211.685;1957.05.15 00:00:00;  -8.0;1032.2;   5.0; 158.0;  21.313;   5.500;   0.264; 15;
82.3573;-164.2155;2; 313.572; 211.688;1957.05.15 06:00:00;  -7.1;1030.9;   5.0; 158.0;  22.894;   5.750;   0.264; 15;
82.3710;-164.1880;2; 313.418; 211.690;1957.05.15 12:00:00; -10.5;1030.7;   4.0; 158.0;  24.475;   6.000;   0.263; 15;
82.3835;-164.1607;2; 313.277; 211.689;1957.05.15 18:00:00;  -9.5;1029.7;   5.0; 158.0;  25.922;   6.250;   0.241; 16;
82.3960;-164.1333;2; 313.136; 211.689;1957.05.16 00:00:00;  -7.0;1029.6;   8.0; 158.0;  27.370;   6.500;   0.241; 16;
82.4085;-164.1058;2; 312.995; 211.688;1957.05.16 06:00:00;  -7.3;1030.2;   7.0; 180.0;  28.817;   6.750;   0.241; 16;
82.4210;-164.0782;2; 312.854; 211.687;1957.05.16 12:00:00; -10.1;1030.9;   5.0; 180.0;  30.266;   7.000;   0.241; 16;
82.4335;-164.0506;2; 312.713; 211.686;1957.05.16 18:00:00; -10.9;1031.1;   4.0; 180.0;  31.713;   7.250;   0.241; 16;
82.4460;-164.0228;2; 312.572; 211.685;1957.05.17 00:00:00;  -9.0;1031.4;   5.0; 180.0;  33.161;   7.500;   0.241; 16;
82.4585;-163.9949;2; 312.431; 211.685;1957.05.17 06:00:00; -10.0;1030.4;   3.0; 158.0;  34.610;   7.750;   0.241; 16;
82.4710;-163.9670;2; 312.290; 211.684;1957.05.17 12:00:00; -12.8;1030.4;   3.0; 180.0;  36.057;   8.000;   0.241; 16;
82.4734;-163.9361;2; 312.253; 211.649;1957.05.17 18:00:00; -13.3;1030.8;   3.0; 180.0;  36.579;   8.250;   0.087; 60;
82.4758;-163.9051;2; 312.216; 211.614;1957.05.18 00:00:00; -11.5;1030.2;   3.0; 202.0;  37.102;   8.500;   0.087; 60;
82.4781;-163.8741;2; 312.179; 211.579;1957.05.18 06:00:00; -12.2;1029.2;   1.0; 180.0;  37.625;   8.750;   0.087; 60;
82.4805;-163.8432;2; 312.142; 211.544;1957.05.18 12:00:00; -13.0;1028.9;   0.0;   0.0;  38.148;   9.000;   0.087; 60;
82.4829;-163.8121;2; 312.105; 211.508;1957.05.18 18:00:00; -10.3;1028.6;   0.0;   0.0;  38.670;   9.250;   0.087; 60;
82.4853;-163.7811;2; 312.068; 211.473;1957.05.19 00:00:00;  -9.5;1027.9;   2.0; 158.0;  39.193;   9.500;   0.087; 60;
82.4876;-163.7501;2; 312.031; 211.438;1957.05.19 06:00:00;  -9.4;1027.4;   2.0; 202.0;  39.716;   9.750;   0.087; 60;
82.4900;-163.7190;2; 311.994; 211.403;1957.05.19 12:00:00;  -8.9;1027.9;   0.0;   0.0;  40.238;  10.000;   0.087; 60;
82.4896;-163.7159;2; 311.997; 211.398;1957.05.19 18:00:00;  -8.6;1027.7;   0.0;   0.0;  40.300;  10.250;   0.010;132;
82.4893;-163.7127;2; 312.000; 211.393;1957.05.20 00:00:00;  -8.0;1028.1;   0.0;   0.0;  40.362;  10.500;   0.010;133;
82.4889;-163.7096;2; 312.002; 211.387;1957.05.20 06:00:00;  -6.3;1028.4;   2.0;  68.0;  40.423;  10.750;   0.010;133;
82.4885;-163.7065;2; 312.005; 211.382;1957.05.20 12:00:00;  -7.2;1029.4;   1.0; 158.0;  40.485;  11.000;   0.010;132;
82.4881;-163.7034;2; 312.007; 211.376;1957.05.20 18:00:00;  -7.2;1030.1;   2.0;  68.0;  40.546;  11.250;   0.010;132;
82.4877;-163.7002;2; 312.010; 211.371;1957.05.21 00:00:00;  -7.1;1030.6;   1.0;  45.0;  40.609;  11.500;   0.010;133;
82.4874;-163.6971;2; 312.013; 211.366;1957.05.21 06:00:00;  -7.4;1031.5;   0.0;   0.0;  40.670;  11.750;   0.010;132;
82.4870;-163.6940;2; 312.015; 211.360;1957.05.21 12:00:00;  -8.2;1032.8;   2.0;  45.0;  40.732;  12.000;   0.010;133;
82.4886;-163.7192;2; 312.008; 211.399;1957.05.21 18:00:00;  -7.6;1033.4;   0.0;   0.0;  41.141;  12.250;   0.068;296;
82.4903;-163.7444;2; 312.002; 211.439;1957.05.22 00:00:00;  -8.1;1034.2;   1.0;  45.0;  41.550;  12.500;   0.068;296;
82.4919;-163.7697;2; 311.995; 211.478;1957.05.22 06:00:00;  -7.2;1034.3;   3.0;  45.0;  41.959;  12.750;   0.068;296;
82.4935;-163.7949;2; 311.988; 211.517;1957.05.22 12:00:00;  -7.8;1034.2;   0.0;   0.0;  42.367;  13.000;   0.068;296;
82.4951;-163.8202;2; 311.981; 211.556;1957.05.22 18:00:00;  -7.8;1034.0;   1.0;  90.0;  42.776;  13.250;   0.068;296;
82.4968;-163.8454;2; 311.974; 211.596;1957.05.23 00:00:00;  -6.5;1033.8;   5.0; 112.0;  43.185;  13.500;   0.068;296;
82.4984;-163.8707;2; 311.967; 211.635;1957.05.23 06:00:00;  -6.4;1033.0;   3.0;  90.0;  43.594;  13.750;   0.068;296;
82.5000;-163.8960;2; 311.960; 211.674;1957.05.23 12:00:00;  -7.5;1033.6;   3.0;  90.0;  44.003;  14.000;   0.068;296;
82.5114;-163.9368;2; 311.857; 211.764;1957.05.23 18:00:00;  -5.9;1033.3;   4.0;  90.0;  45.401;  14.250;   0.233;335;
82.5228;-163.9777;2; 311.755; 211.853;1957.05.24 00:00:00;  -3.6;1033.5;   5.0; 112.0;  46.799;  14.500;   0.233;335;
82.5341;-164.0188;2; 311.652; 211.943;1957.05.24 06:00:00;  -4.2;1032.4;   5.0;  90.0;  48.196;  14.750;   0.233;335;
82.5455;-164.0600;2; 311.550; 212.032;1957.05.24 12:00:00;  -6.8;1032.4;   4.0; 112.0;  49.594;  15.000;   0.233;335;
82.5569;-164.1013;2; 311.447; 212.122;1957.05.24 18:00:00;  -6.0;1031.3;   3.0;  90.0;  50.992;  15.250;   0.233;335;
82.5683;-164.1427;2; 311.345; 212.211;1957.05.25 00:00:00;  -4.6;1030.7;   3.0; 112.0;  52.389;  15.500;   0.233;335;
82.5796;-164.1843;2; 311.242; 212.301;1957.05.25 06:00:00;  -4.3;1028.8;   0.0;   0.0;  53.788;  15.750;   0.233;335;
82.5910;-164.2260;2; 311.140; 212.390;1957.05.25 12:00:00;  -7.6;1027.9;   0.0;   0.0;  55.186;  16.000;   0.233;335;
82.6010;-164.2318;2; 311.038; 212.428;1957.05.25 18:00:00;  -7.8;1026.8;   0.0;   0.0;  56.300;  16.250;   0.186;356;
82.6110;-164.2377;2; 310.936; 212.465;1957.05.26 00:00:00;  -4.4;1026.4;   0.0;   0.0;  57.416;  16.500;   0.186;356;
82.6210;-164.2435;2; 310.834; 212.502;1957.05.26 06:00:00;  -4.7;1025.4;   2.0; 270.0;  58.531;  16.750;   0.186;356;
82.6310;-164.2494;2; 310.732; 212.539;1957.05.26 12:00:00;  -8.4;1025.6;   2.0; 292.0;  59.646;  17.000;   0.186;356;
82.6410;-164.2552;2; 310.630; 212.577;1957.05.26 18:00:00;  -6.2;1025.2;   3.0; 292.0;  60.761;  17.250;   0.186;356;
82.6510;-164.2612;2; 310.528; 212.614;1957.05.27 00:00:00;  -5.3;1025.7;   4.0; 292.0;  61.876;  17.500;   0.186;356;
82.6610;-164.2671;2; 310.426; 212.651;1957.05.27 06:00:00;  -6.5;1025.8;   4.0; 270.0;  62.992;  17.750;   0.186;356;
82.6710;-164.2730;2; 310.324; 212.688;1957.05.27 12:00:00;  -7.8;1025.8;   3.0; 225.0;  64.106;  18.000;   0.186;356;
82.6743;-164.2437;2; 310.279; 212.659;1957.05.27 18:00:00;  -6.2;1026.0;   0.0;   0.0;  64.658;  18.250;   0.092; 49;
82.6775;-164.2144;2; 310.234; 212.630;1957.05.28 00:00:00;  -2.1;1026.6;   1.0; 180.0;  65.208;  18.500;   0.092; 49;
82.6808;-164.1851;2; 310.189; 212.600;1957.05.28 06:00:00;  -3.2;1026.8;   3.0; 180.0;  65.759;  18.750;   0.092; 49;
82.6840;-164.1557;2; 310.144; 212.571;1957.05.28 12:00:00;  -5.8;1027.6;   0.0;   0.0;  66.311;  19.000;   0.092; 49;
82.6873;-164.1263;2; 310.099; 212.542;1957.05.28 18:00:00;  -5.0;1027.6;   1.0; 135.0;  66.861;  19.250;   0.092; 49;
82.6905;-164.0969;2; 310.054; 212.512;1957.05.29 00:00:00;  -2.2;1027.8;   2.0; 135.0;  67.413;  19.500;   0.092; 49;
82.6938;-164.0675;2; 310.009; 212.483;1957.05.29 06:00:00;  -3.8;1026.7;   3.0; 135.0;  67.964;  19.750;   0.092; 49;
82.6970;-164.0380;2; 309.964; 212.454;1957.05.29 12:00:00;  -5.7;1025.3;   4.0; 135.0;  68.514;  20.000;   0.092; 49;
82.7074;-163.9749;2; 309.832; 212.401;1957.05.29 18:00:00;  -5.4;1024.6;   6.0; 135.0;  69.976;  20.250;   0.244; 38;
82.7178;-163.9116;2; 309.700; 212.349;1957.05.30 00:00:00;  -3.7;1023.7;   7.0; 158.0;  71.435;  20.500;   0.243; 38;
82.7282;-163.8481;2; 309.568; 212.296;1957.05.30 06:00:00;  -3.9;1022.5;   8.0; 158.0;  72.896;  20.750;   0.243; 38;
82.7386;-163.7845;2; 309.435; 212.244;1957.05.30 12:00:00;  -4.2;1022.0;   9.0; 158.0;  74.357;  21.000;   0.244; 38;
82.7489;-163.7206;2; 309.303; 212.192;1957.05.30 18:00:00;  -2.5;1021.9;   9.0; 158.0;  75.818;  21.250;   0.243; 38;
82.7593;-163.6566;2; 309.171; 212.139;1957.05.31 00:00:00;  -2.8;1021.7;   9.0; 158.0;  77.278;  21.500;   0.243; 38;
82.7697;-163.5924;2; 309.039; 212.087;1957.05.31 06:00:00;  -3.3;1021.1;   8.0; 158.0;  78.740;  21.750;   0.244; 38;
82.7800;-163.5280;2; 308.906; 212.034;1957.05.31 12:00:00;  -3.6;1020.6;   7.0; 180.0;  80.200;  22.000;   0.243; 38;
82.8018;-163.4715;2; 308.658; 212.028;1957.05.31 18:00:00;  -2.5;1020.6;   5.0; 180.0;  82.747;  22.250;   0.425; 18;
82.8235;-163.4146;2; 308.411; 212.021;1957.06.01 00:00:00;  -2.8;1019.3;   6.0; 180.0;  85.293;  22.500;   0.424; 18;
82.8453;-163.3574;2; 308.163; 212.014;1957.06.01 06:00:00;  -3.6;1015.0;   7.0; 158.0;  87.839;  22.750;   0.424; 18;
82.8671;-163.2998;2; 307.915; 212.008;1957.06.01 12:00:00;  -3.5;1007.2;  14.0; 158.0;  90.386;  23.000;   0.425; 18;
82.8888;-163.2419;2; 307.667; 212.001;1957.06.01 18:00:00;  -3.3; 998.1;  17.0; 158.0;  92.932;  23.250;   0.424; 18;
82.9105;-163.1836;2; 307.419; 211.994;1957.06.02 00:00:00;  -0.3; 993.8;   7.0; 202.0;  95.479;  23.500;   0.424; 18;
82.9323;-163.1250;2; 307.171; 211.988;1957.06.02 06:00:00;  -3.2; 996.2;  12.0; 270.0;  98.026;  23.750;   0.425; 18;
82.9540;-163.0660;2; 306.924; 211.981;1957.06.02 12:00:00;  -4.0; 998.4;  10.0; 248.0; 100.573;  24.000;   0.424; 18;
82.9678;-162.9960;2; 306.754; 211.936;1957.06.02 18:00:00;  -2.5; 997.3;  10.0; 225.0; 102.378;  24.250;   0.301; 32;
82.9816;-162.9257;2; 306.584; 211.890;1957.06.03 00:00:00;  -1.9; 995.9;   7.0; 225.0; 104.184;  24.500;   0.301; 32;
82.9953;-162.8551;2; 306.414; 211.845;1957.06.03 06:00:00;  -2.2; 993.5;   3.0; 158.0; 105.990;  24.750;   0.301; 32;
83.0091;-162.7842;2; 306.244; 211.800;1957.06.03 12:00:00;  -0.7; 990.4;   3.0; 112.0; 107.796;  25.000;   0.301; 32;
83.0228;-162.7131;2; 306.074; 211.754;1957.06.03 18:00:00;  -0.4; 998.8;   5.0; 158.0; 109.601;  25.250;   0.301; 32;
83.0366;-162.6417;2; 305.905; 211.709;1957.06.04 00:00:00;   1.2; 989.5;   0.0;   0.0; 111.407;  25.500;   0.301; 32;
83.0503;-162.5700;2; 305.735; 211.664;1957.06.04 06:00:00;  -3.7; 992.4;   8.0; 315.0; 113.213;  25.750;   0.301; 32;
83.0640;-162.4980;2; 305.565; 211.619;1957.06.04 12:00:00;  -5.6; 996.9;   7.0; 292.0; 115.019;  26.000;   0.301; 32;
83.0663;-162.4339;2; 305.516; 211.546;1957.06.04 18:00:00;  -6.3;1000.2;   7.0; 270.0; 115.916;  26.250;   0.149; 74;
83.0686;-162.3698;2; 305.467; 211.474;1957.06.05 00:00:00;  -5.2;1003.6;   7.0; 270.0; 116.813;  26.500;   0.150; 74;
83.0708;-162.3056;2; 305.418; 211.401;1957.06.05 06:00:00;  -4.7;1005.8;   5.0; 292.0; 117.711;  26.750;   0.150; 74;
83.0731;-162.2413;2; 305.370; 211.329;1957.06.05 12:00:00;  -5.9;1007.5;   5.0; 270.0; 118.608;  27.000;   0.149; 74;
83.0753;-162.1771;2; 305.321; 211.256;1957.06.05 18:00:00;  -7.4;1009.3;   6.0; 248.0; 119.505;  27.250;   0.150; 74;
83.0776;-162.1127;2; 305.272; 211.184;1957.06.06 00:00:00;  -2.0;1013.3;   5.0; 360.0; 120.402;  27.500;   0.150; 74;
83.0798;-162.0484;2; 305.223; 211.111;1957.06.06 06:00:00;  -3.3;1019.1;   6.0; 315.0; 121.299;  27.750;   0.150; 74;
83.0820;-161.9840;2; 305.175; 211.039;1957.06.06 12:00:00;  -2.0;1023.3;   1.0; 202.0; 122.197;  28.000;   0.150; 74;
83.0736;-161.9738;2; 305.257; 210.998;1957.06.06 18:00:00;  -0.9;1025.9;   3.0; 315.0; 123.137;  28.250;   0.157;172;
83.0652;-161.9636;2; 305.339; 210.958;1957.06.07 00:00:00;  -0.5;1028.0;   4.0; 292.0; 124.080;  28.500;   0.157;172;
83.0569;-161.9534;2; 305.421; 210.917;1957.06.07 06:00:00;  -1.1;1029.0;   0.0;   0.0; 125.020;  28.750;   0.157;172;
83.0485;-161.9433;2; 305.503; 210.876;1957.06.07 12:00:00;  -3.9;1030.4;   4.0;  45.0; 125.962;  29.000;   0.157;172;
83.0401;-161.9332;2; 305.585; 210.836;1957.06.07 18:00:00;  -4.7;1030.8;   0.0;   0.0; 126.902;  29.250;   0.157;172;
83.0318;-161.9231;2; 305.667; 210.795;1957.06.08 00:00:00;  -3.5;1030.9;   1.0; 292.0; 127.843;  29.500;   0.157;172;
83.0234;-161.9130;2; 305.749; 210.754;1957.06.08 06:00:00;  -4.9;1030.5;   2.0;  68.0; 128.785;  29.750;   0.157;172;
83.0150;-161.9030;2; 305.831; 210.713;1957.06.08 12:00:00;  -6.4;1030.1;   1.0; 112.0; 129.726;  30.000;   0.157;172;
83.0174;-161.8862;2; 305.800; 210.700;1957.06.08 18:00:00;  -6.1;1030.1;   1.0; 112.0; 130.075;  30.250;   0.058; 41;
83.0198;-161.8693;2; 305.769; 210.687;1957.06.09 00:00:00;  -4.5;1030.3;   3.0; 135.0; 130.424;  30.500;   0.058; 41;
83.0221;-161.8525;2; 305.737; 210.674;1957.06.09 06:00:00;  -5.3;1030.2;   1.0; 135.0; 130.773;  30.750;   0.058; 41;
83.0245;-161.8356;2; 305.706; 210.661;1957.06.09 12:00:00;  -7.4;1030.5;   3.0; 112.0; 131.121;  31.000;   0.058; 41;
83.0269;-161.8187;2; 305.675; 210.648;1957.06.09 18:00:00;  -6.3;1030.3;   3.0; 112.0; 131.470;  31.250;   0.058; 41;
83.0293;-161.8018;2; 305.643; 210.635;1957.06.10 00:00:00;  -4.3;1030.7;   3.0; 158.0; 131.819;  31.500;   0.058; 41;
83.0316;-161.7849;2; 305.612; 210.622;1957.06.10 06:00:00;  -5.4;1030.4;   4.0; 135.0; 132.168;  31.750;   0.058; 41;
83.0340;-161.7680;2; 305.581; 210.609;1957.06.10 12:00:00;  -7.4;1030.5;   3.0; 112.0; 132.516;  32.000;   0.058; 41;
83.0511;-161.7417;2; 305.394; 210.634;1957.06.10 18:00:00;  -6.0;1030.6;   3.0; 158.0; 134.454;  32.250;   0.323; 11;
83.0683;-161.7153;2; 305.207; 210.660;1957.06.11 00:00:00;  -5.1;1030.0;   4.0; 135.0; 136.392;  32.500;   0.323; 11;
83.0854;-161.6887;2; 305.020; 210.685;1957.06.11 06:00:00;  -6.1;1028.9;   2.0; 135.0; 138.329;  32.750;   0.323; 11;
83.1025;-161.6621;2; 304.833; 210.710;1957.06.11 12:00:00;  -6.8;1027.8;   0.0;   0.0; 140.266;  33.000;   0.323; 11;
83.1196;-161.6352;2; 304.646; 210.735;1957.06.11 18:00:00;  -6.1;1027.2;   2.0;  68.0; 142.204;  33.250;   0.323; 11;
83.1368;-161.6083;2; 304.459; 210.761;1957.06.12 00:00:00;  -5.2;1026.2;   2.0;  68.0; 144.141;  33.500;   0.323; 11;
83.1539;-161.5812;2; 304.272; 210.786;1957.06.12 06:00:00;  -5.3;1025.2;   2.0;  22.0; 146.078;  33.750;   0.323; 11;
83.1710;-161.5540;2; 304.086; 210.811;1957.06.12 12:00:00;  -6.0;1024.1;   3.0; 360.0; 148.016;  34.000;   0.323; 11;
83.1828;-161.6207;2; 303.992; 210.933;1957.06.12 18:00:00;  -4.9;1023.9;   5.0;  45.0; 149.595;  34.250;   0.263;326;
83.1946;-161.6876;2; 303.898; 211.055;1957.06.13 00:00:00;  -3.5;1023.5;   7.0;  22.0; 151.174;  34.500;   0.263;326;
83.2063;-161.7547;2; 303.804; 211.176;1957.06.13 06:00:00;  -2.6;1021.8;   7.0;  68.0; 152.753;  34.750;   0.263;326;
83.2181;-161.8221;2; 303.710; 211.298;1957.06.13 12:00:00;  -3.1;1021.4;   5.0;  68.0; 154.332;  35.000;   0.263;326;
83.2298;-161.8897;2; 303.616; 211.420;1957.06.13 18:00:00;  -1.1;1020.5;   6.0;  68.0; 155.910;  35.250;   0.263;326;
83.2416;-161.9576;2; 303.522; 211.541;1957.06.14 00:00:00;  -1.9;1021.8;   7.0; 112.0; 157.490;  35.500;   0.263;326;
83.2533;-162.0257;2; 303.428; 211.663;1957.06.14 06:00:00;  -0.6;1022.7;   5.0; 112.0; 159.068;  35.750;   0.263;326;
83.2650;-162.0940;2; 303.334; 211.784;1957.06.14 12:00:00;  -2.1;1023.1;   4.0;  90.0; 160.647;  36.000;   0.263;326;
83.2685;-162.2143;2; 303.345; 211.941;1957.06.14 18:00:00;  -2.3;1022.5;   5.0;  45.0; 162.262;  36.250;   0.269;284;
83.2719;-162.3348;2; 303.356; 212.098;1957.06.15 00:00:00;  -2.0;1021.5;   4.0;  45.0; 163.878;  36.500;   0.269;284;
83.2754;-162.4553;2; 303.367; 212.255;1957.06.15 06:00:00;  -2.2;1020.7;   5.0;  68.0; 165.494;  36.750;   0.269;284;
83.2787;-162.5760;2; 303.378; 212.412;1957.06.15 12:00:00;  -2.7;1020.9;   3.0; 112.0; 167.109;  37.000;   0.269;283;
83.2821;-162.6968;2; 303.389; 212.569;1957.06.15 18:00:00;  -3.4;1020.5;   4.0;  90.0; 168.725;  37.250;   0.269;283;
83.2854;-162.8178;2; 303.400; 212.725;1957.06.16 00:00:00;  -3.1;1019.5;   5.0;  68.0; 170.341;  37.500;   0.269;283;
83.2887;-162.9388;2; 303.411; 212.882;1957.06.16 06:00:00;  -3.9;1018.1;   8.0;  68.0; 171.956;  37.750;   0.269;283;
83.2920;-163.0600;2; 303.422; 213.039;1957.06.16 12:00:00;  -4.3;1017.1;   9.0;  68.0; 173.572;  38.000;   0.269;283;
83.2964;-163.1822;2; 303.422; 213.201;1957.06.16 18:00:00;  -3.8;1016.4;   6.0;  90.0; 175.231;  38.250;   0.277;287;
83.3007;-163.3046;2; 303.421; 213.362;1957.06.17 00:00:00;  -2.0;1016.3;   6.0;  90.0; 176.890;  38.500;   0.277;287;
83.3050;-163.4271;2; 303.421; 213.524;1957.06.17 06:00:00;   0.3;1015.5;   7.0;  90.0; 178.549;  38.750;   0.276;287;
83.3092;-163.5497;2; 303.421; 213.685;1957.06.17 12:00:00;  -0.7;1014.8;   7.0;  68.0; 180.208;  39.000;   0.277;287;
83.3135;-163.6726;2; 303.421; 213.846;1957.06.17 18:00:00;  -0.6;1013.2;  10.0;  90.0; 181.867;  39.250;   0.276;286;
83.3177;-163.7956;2; 303.420; 214.008;1957.06.18 00:00:00;  -1.1;1012.9;  10.0; 112.0; 183.526;  39.500;   0.277;286;
83.3219;-163.9187;2; 303.420; 214.169;1957.06.18 06:00:00;  -0.7;1011.0;   8.0;  90.0; 185.185;  39.750;   0.277;286;
83.3260;-164.0420;2; 303.420; 214.331;1957.06.18 12:00:00;  -1.2;1009.6;   4.0;  90.0; 186.844;  40.000;   0.276;286;
83.3339;-164.1184;2; 303.363; 214.447;1957.06.18 18:00:00;  -0.5;1008.9;   3.0;  68.0; 188.167;  40.250;   0.220;312;
83.3418;-164.1949;2; 303.308; 214.562;1957.06.19 00:00:00;  -0.1;1008.2;   2.0; 360.0; 189.488;  40.500;   0.220;312;
83.3497;-164.2716;2; 303.252; 214.678;1957.06.19 06:00:00;  -0.3;1008.3;   2.0; 338.0; 190.810;  40.750;   0.220;312;
83.3576;-164.3485;2; 303.195; 214.794;1957.06.19 12:00:00;  -0.3;1009.4;   1.0; 338.0; 192.133;  41.000;   0.220;312;
83.3655;-164.4256;2; 303.139; 214.910;1957.06.19 18:00:00;   0.1;1011.8;   2.0;  68.0; 193.455;  41.250;   0.220;311;
83.3733;-164.5029;2; 303.083; 215.026;1957.06.20 00:00:00;  -0.2;1014.9;   1.0;  22.0; 194.776;  41.500;   0.220;311;
83.3812;-164.5804;2; 303.027; 215.141;1957.06.20 06:00:00;  -1.8;1017.1;   1.0;  45.0; 196.099;  41.750;   0.220;311;
83.3890;-164.6580;2; 302.971; 215.257;1957.06.20 12:00:00;  -1.3;1019.4;   0.0;   0.0; 197.420;  42.000;   0.220;311;
83.3883;-164.6610;2; 302.980; 215.259;1957.06.20 18:00:00;  -1.2;1020.8;   1.0; 338.0; 197.512;  42.250;   0.015;205;
83.3875;-164.6640;2; 302.989; 215.260;1957.06.21 00:00:00;  -0.1;1021.6;   0.0;   0.0; 197.604;  42.500;   0.015;205;
83.3867;-164.6670;2; 302.998; 215.262;1957.06.21 06:00:00;   0.5;1021.6;   0.0;   0.0; 197.696;  42.750;   0.015;205;
83.3860;-164.6700;2; 303.006; 215.263;1957.06.21 12:00:00;  -0.2;1021.7;   3.0; 158.0; 197.788;  43.000;   0.015;205;
83.3852;-164.6730;2; 303.015; 215.264;1957.06.21 18:00:00;   0.1;1020.4;   4.0; 158.0; 197.880;  43.250;   0.015;205;
83.3845;-164.6760;2; 303.024; 215.266;1957.06.22 00:00:00;   0.2;1019.8;   5.0; 158.0; 197.971;  43.500;   0.015;205;
83.3838;-164.6790;2; 303.033; 215.267;1957.06.22 06:00:00;   0.1;1019.5;   5.0; 158.0; 198.063;  43.750;   0.015;205;
83.3830;-164.6820;2; 303.042; 215.269;1957.06.22 12:00:00;  -1.1;1020.3;   3.0; 135.0; 198.155;  44.000;   0.015;205;
83.3874;-164.6475;2; 302.985; 215.240;1957.06.22 18:00:00;  -1.9;1020.9;   4.0; 135.0; 198.812;  44.250;   0.110; 42;
83.3918;-164.6130;2; 302.928; 215.211;1957.06.23 00:00:00;  -1.0;1021.8;   3.0; 112.0; 199.469;  44.500;   0.110; 42;
83.3961;-164.5785;2; 302.870; 215.182;1957.06.23 06:00:00;  -1.3;1021.6;   1.0;  90.0; 200.127;  44.750;   0.110; 42;
83.4005;-164.5439;2; 302.813; 215.153;1957.06.23 12:00:00;  -2.8;1020.1;   1.0;  68.0; 200.785;  45.000;   0.110; 42;
83.4049;-164.5092;2; 302.756; 215.124;1957.06.23 18:00:00;  -1.9;1018.8;   2.0; 135.0; 201.442;  45.250;   0.110; 42;
83.4093;-164.4745;2; 302.699; 215.096;1957.06.24 00:00:00;  -0.3;1018.8;   3.0; 158.0; 202.100;  45.500;   0.110; 42;
83.4136;-164.4398;2; 302.642; 215.067;1957.06.24 06:00:00;  -0.9;1016.7;   2.0;  68.0; 202.757;  45.750;   0.110; 42;
83.4180;-164.4050;2; 302.585; 215.038;1957.06.24 12:00:00;  -1.2;1012.6;   8.0;  68.0; 203.415;  46.000;   0.110; 42;
83.4263;-164.3732;2; 302.488; 215.024;1957.06.24 18:00:00;   0.3;1010.3;   8.0;  90.0; 204.420;  46.250;   0.167; 24;
83.4345;-164.3412;2; 302.392; 215.010;1957.06.25 00:00:00;   0.9;1009.8;   9.0;  68.0; 205.422;  46.500;   0.167; 24;
83.4428;-164.3092;2; 302.295; 214.996;1957.06.25 06:00:00;   0.9;1009.9;   9.0;  68.0; 206.427;  46.750;   0.167; 24;
83.4510;-164.2771;2; 302.198; 214.982;1957.06.25 12:00:00;   0.5;1010.6;   9.0;  68.0; 207.431;  47.000;   0.167; 24;
83.4593;-164.2450;2; 302.102; 214.968;1957.06.25 18:00:00;   0.1;1010.8;  14.0;  68.0; 208.434;  47.250;   0.167; 24;
83.4675;-164.2127;2; 302.005; 214.954;1957.06.26 00:00:00;   0.2;1010.3;   9.0;  68.0; 209.437;  47.500;   0.167; 24;
83.4758;-164.1804;2; 301.908; 214.940;1957.06.26 06:00:00;   0.5;1009.4;   8.0;  45.0; 210.442;  47.750;   0.167; 24;
83.4840;-164.1480;2; 301.812; 214.926;1957.06.26 12:00:00;   0.5;1008.7;   6.0;  68.0; 211.445;  48.000;   0.167; 24;
83.4892;-164.2743;2; 301.799; 215.091;1957.06.26 18:00:00;   0.4;1008.4;   5.0;  68.0; 213.142;  48.250;   0.283;290;
83.4944;-164.4008;2; 301.787; 215.255;1957.06.27 00:00:00;   0.4;1007.2;   6.0;  68.0; 214.837;  48.500;   0.283;290;
83.4996;-164.5275;2; 301.775; 215.420;1957.06.27 06:00:00;   0.2;1007.7;   8.0;  68.0; 216.534;  48.750;   0.283;290;
83.5048;-164.6544;2; 301.762; 215.584;1957.06.27 12:00:00;  -0.1;1007.9;  10.0;  68.0; 218.230;  49.000;   0.283;290;
83.5099;-164.7815;2; 301.750; 215.749;1957.06.27 18:00:00;   0.4;1007.4;   8.0;  90.0; 219.926;  49.250;   0.283;290;
83.5149;-164.9088;2; 301.738; 215.913;1957.06.28 00:00:00;   0.3;1010.6;   7.0; 112.0; 221.622;  49.500;   0.283;289;
83.5200;-165.0363;2; 301.725; 216.078;1957.06.28 06:00:00;   0.1;1012.0;   7.0; 112.0; 223.318;  49.750;   0.283;289;
83.5250;-165.1640;2; 301.713; 216.242;1957.06.28 12:00:00;  -0.5;1013.7;   7.0; 112.0; 225.014;  50.000;   0.283;289;